Regional Weather Roundup
Issued by NWS Memphis, TN

Home | Current Version | Previous Version | Text Only | Print | Product List | Glossary On
Versions: 1 2 3 4 5 6 7 8 9 10 11 12 13 14 15 16 17 18 19 20 21 22 23 24 25 26 27 28 29 30 31 32 33 34 35 36 37 38 39 40 41 42 43 44 45 46 47 48 49 50
000
ASUS44 KMEG 281210
RWRMEG
MEMPHIS CWA HOURLY WEATHER ROUNDUP
NATIONAL WEATHER SERVICE MEMPHIS TN
700 AM CDT FRI APR 28 2017

...WEST TENNESSEE...

CITY           SKY/WX    TMP DP  RH WIND       PRES   REMARKS
MEMPHIS INTL   PTCLDY    60  55  83 SE6       29.82R
6HR MIN TEMP:  56; 6HR MAX TEMP:  60;

NWS MEMPHIS      N/A     57 N/A N/A MISG        N/A
JACKSON        PTCLDY    56  54  93 E5        29.86R
6HR MIN TEMP:  53; 6HR MAX TEMP:  56;

SOMERVILLE     PTCLDY    57  55  94 CALM      29.82R
BOLIVAR        CLEAR     57  54  88 E3        29.85R
LEXINGTON      PTSUNNY   55  54  94 CALM      29.87R
SAVANNAH       SUNNY     55  54  94 CALM      29.86R
DYERSBURG      CLOUDY    56  53  90 E5        29.87R
6HR MIN TEMP:  52; 6HR MAX TEMP:  56;

UNION CITY     MOCLDY    55  54  94 E5        29.87R
PARIS          MOSUNNY   54  50  87 SE5       29.89R
HUNTINGDON     PTSUNNY   55  52  88 CALM      29.90R


...EASTERN ARKANSAS...

CITY           SKY/WX    TMP DP  RH WIND       PRES   REMARKS
JONESBORO      CLOUDY    57  54  89 NE7       29.83F
6HR MIN TEMP:  52; 6HR MAX TEMP:  57;

WEST MEMPHIS   PTCLDY    57  56  96 SE3       29.81R
6HR MIN TEMP:  55; 6HR MAX TEMP:  59;

BATESVILLE     MOCLDY    54  52  94 SE3       29.80F
6HR MIN TEMP:  52; 6HR MAX TEMP:  55;

NEWPORT        CLOUDY    57  55  93 MISG      29.82S
6HR MIN TEMP:  55; 6HR MAX TEMP:  57;

WALNUT RIDGE   CLOUDY    57  52  82 E7        29.82F
6HR MIN TEMP:  57; 6HR MAX TEMP:  57;

BLYTHEVILLE    CLOUDY    57  55  93 E6        29.85F
6HR MIN TEMP:  53; 6HR MAX TEMP:  57; 6HR PCP: TRACE;

SEARCY         CLOUDY    58  56  93 NE7       29.81S
6HR MIN TEMP:  52; 6HR MAX TEMP:  58;

STUTTGART      CLOUDY    59  48  67 E8        29.78R
6HR MIN TEMP:  57; 6HR MAX TEMP:  59;

PINE BLUFF     MOCLDY    61  58  90 E5        29.76R
6HR MIN TEMP:  58; 6HR MAX TEMP:  61;

MONTICELLO     CLOUDY    60  57  89 E3        29.74F
6HR MIN TEMP:  56; 6HR MAX TEMP:  60;



...NORTH MISSISSIPPI...

CITY           SKY/WX    TMP DP  RH WIND       PRES   REMARKS
TUPELO         CLOUDY    60  56  86 SE5       29.86R
6HR MIN TEMP:  55; 6HR MAX TEMP:  60;

OXFORD         CLOUDY    57  55  94 SE10      29.85R
OLIVE BRANCH   MOCLDY   N/A N/A N/A CALM      29.81
TUNICA         CLEAR     55  54  94 CALM      29.82R
CLARKSDALE     CLEAR     59  59 100 CALM      29.80R
CORINTH        CLOUDY    55  54  94 CALM      29.86R
GREENWOOD      MOCLDY    65  62  90 S14       29.81R
6HR MIN TEMP:  57; 6HR MAX TEMP:  65;

COLUMBUS       FOG       64  64 100 SE5       29.87R VSB 3/4
6HR MIN TEMP:  53; 6HR MAX TEMP:  64;

STARKVILLE     FOG       61  59  94 S5        29.88R VSB 1/4
GOLDEN TRIANGL FOG       63  59  88 S7        29.84R VSB 1/2


...SOUTHEAST MISSOURI...

CITY           SKY/WX    TMP DP  RH WIND       PRES   REMARKS
KENNETT        CLOUDY    57  55  94 NE5       29.84F
MALDEN         CLOUDY    57  54  88 E5        29.87F
WEST PLAINS    CLOUDY    55  50  83 SE8       29.78F
6HR MIN TEMP:  53; 6HR MAX TEMP:  56;

POPLAR BLUFF   CLOUDY    56  54  93 E3        29.85F
6HR MIN TEMP:  56; 6HR MAX TEMP:  57;

CAPE GIRARDEAU CLOUDY    55  51  86 SE8       29.88S
6HR MIN TEMP:  53; 6HR MAX TEMP:  55;



...NORTHWEST ALABAMA...

CITY           SKY/WX    TMP DP  RH WIND       PRES   REMARKS
MUSCLE SHOALS  PTSUNNY   61  57  87 SE8       29.90R
6HR MIN TEMP:  54; 6HR MAX TEMP:  60;



...MIDDLE TENNESSEE...

CITY           SKY/WX    TMP DP  RH WIND       PRES   REMARKS
NASHVILLE      CLOUDY    55  53  93 SE3       29.94R
6HR MIN TEMP:  52; 6HR MAX TEMP:  55;

CLARKSVILLE    CLOUDY    54  50  86 E8        29.89F
6HR MIN TEMP:  52; 6HR MAX TEMP:  54;

COLUMBIA       SUNNY    N/A N/A N/A E6        29.87F


...WESTERN KENTUCKY...

CITY           SKY/WX    TMP DP  RH WIND       PRES   REMARKS
PADUCAH        CLOUDY    56  51  84 CALM      29.89R
6HR MIN TEMP:  52; 6HR MAX TEMP:  56;

FORT CAMPBELL  CLOUDY    54  52  91 E10       29.89S
6HR MIN TEMP:  53; 6HR MAX TEMP:  55;



...CENTRAL ARKANSAS...

CITY           SKY/WX    TMP DP  RH WIND       PRES   REMARKS
LITTLE ROCK    CLOUDY    57  57 100 E8        29.77R
6HR MIN TEMP:  54; 6HR MAX TEMP:  57;



SKY/WX REPORTED AS FAIR MEANS FEW OR NO CLOUDS BELOW
12 THOUSAND FEET.





USA.gov is the U.S. government's official web portal to all federal, state and local government web resources and services.